CZ-2C R/B, 63127

Orbit data source: Space-Track

CZ-2C R/B, 63127 is space debris in SSO originally from a launch on Thu, 27 Feb 2025 UTC launched from the Jiuquan Satellite Launch Center, China (JSC). Debris objects in space refer to the collection of defunct objects orbiting the Earth. Examples of debris include non-operational satellites, rocket bodies, and fragments generated from explosions, collisions, or faulty payload assembly.

Loading next visibility...
Identifier
63127, 2025-040C
Orbit
SSO
Last TLE update
13 hours ago
Origin
Manufacturer
CALT
Mission
Spacecraft
Bus & Motor
CZ-2 STAGE 2, Unknown motor
Mass
~3,800 kg wet, ~3,800 kg dry
Launch date (UTC)
2025-02-27 (4 months ago)
Launch vehicle
Unknown
Launch site
Jiuquan Satellite Launch Center, China (JSC)
Object type
Payload
Rocket body
Debris
Shape & HBR
Cyl, 7.49 m
Radar Cross Section
23.715 m², Large (>1 m²)

Expand to show TLE details & history

TLE from 13 hours ago
0 CZ-2C R/B
1 63127U 25040C   25185.84644073  .00007397  00000-0  26765-3 0  9992
2 63127  97.1535 301.7872 0015272 225.6840 134.3149 15.28590890 19443
Epoch: 2025-07-04T20:18Z
TLE epoch observation values (Epoch: 2025-07-04T20:18:52.479Z)
Latitude
-0.00002°
Longitude
73.97556°
Altitude
490.46 km
Speed
7.616 km/s
True Right ascension
20h 07m 08s
True Declination
0° 00' 00"
Sunlit
Object was in full shadow at epoch
Visualization orbit readout
Latitude
39.94225°
Longitude
-99.49755°
Altitude
484.667 km
Speed
7.627 km/s
Apparent Right ascension
08h 57m 33s
Apparent Declination
1° 46' 34"
Sunlit
Object is in daylight
Visualization observer readout
Local Sidereal Time
21:23:42
Azimuth
9.767° NNE
Elevation
-47.88°
Doppler factor
1
Orbital elements
Apogee altitude
487.437 km
Perigee altitude
466.498 km
Semi-major axis
6,855.105 km
Eccentricity
0.00153
Inclination
97.1535°
RAAN
301.7872°
Arg. of periapsis
225.684°
True anomaly
Unknown
Mean anomaly
134.3149°
Eccentric anomaly
Unknown
Mean motion
3.82404 °/min
Orbital period
94.14 mins
BSTAR
0.00026765
Loading maneuver chart data...
Loading SW <> Apogee altitude chart data...
Loading historical data...
Loading historical data...
Loading historical data...
Loading historical data...
Loading historical data...
Loading historical data...
Loading historical data...
Other satellites on launch #40 in the year 2025 (2025-02-27 UTC)

CZ-2C R/B Visibility forecast

Observer location: undefined°, undefined°

Span
Click to sort rows by Start time (UTC) header in descending order
Start Az.
Max El. time (UTC)
Max El. Az.
Max El.
End time (UTC)
End Az.
6 mins2025-07-05 20:26:38.432Z19.203° NNE2025-07-05 20:29:38.432Z108.769° ESE42.21°2025-07-05 20:32:38.432Z182.413° SSW
4 mins2025-07-06 07:02:38.432Z99.16° ESE2025-07-06 07:03:38.432Z76.765° E19.836°2025-07-06 07:06:38.432Z19.982° NNE
4 mins2025-07-06 08:35:38.432Z231.123° WSW2025-07-06 08:37:38.432Z276.795° WNW19.534°2025-07-06 08:39:38.432Z312.871° NW
|